DECAYED

CZ-2D DEB, 35271 (Decayed)

Orbit data source: Space-Track

CZ-2D DEB, 35271 was space debris in SSO originally from a launch on Tue, 05 Jul 2005 UTC launched from the Jiuquan Satellite Launch Center, China (JSC). Debris objects in space refer to the collection of defunct objects orbiting the Earth. Examples of debris include non-operational satellites, rocket bodies, and fragments generated from explosions, collisions, or faulty payload assembly.

Not visible in the next 10 days
Identifier
35271, 2005-024K
Orbit
Decayed
Country
Flag of CNCN / PRC
Related business
Manufacturer
Unknown
Mission
Decayed spacecraft
Bus & Motor
Unknown
Mass
Unknown
Launch date (UTC)
2005-07-05 (21 years ago)
Launch vehicle
Unknown
Launch site
Jiuquan Satellite Launch Center, China (JSC)
Object type
Payload
Rocket body
Debris
Shape & HBR
Unknown shape, 0.1 m
Radar Cross Section
Small (<0.1 m²)

Expand to show TLE details & history
Last TLE update: 3 months ago

TLE from 3 months ago
0 CZ-2D DEB
1 35271U 05024K   26179.37026420  .00213011  19449-4  55769-3 0  9992
2 35271  97.1565 217.3058 0005237 150.0935 210.0642 15.94878282106487
Epoch: 2026-06-28T08:53Z
TLE epoch observation values (Epoch: 2026-06-28T08:53:10.826Z)
Latitude
0.00002°
Longitude
167.53965°
Altitude
294.875 km
Speed
7.729 km/s
True Right ascension
14h 29m 13s
True Declination
0° 00' 00"
Sunlit
Object was in full shadow at epoch
Visualization orbit readout
Latitude
Unknown
Longitude
Unknown
Altitude
Unknown
Speed
Unknown
Apparent Right ascension
Unknown
Apparent Declination
Unknown
Sunlit
N/A
Visualization observer readout
Local Sidereal Time
15:23:56
Azimuth
Unknown
Elevation
Unknown
Doppler factor
Unknown
Orbital elements
Apogee altitude
288.999 km
Perigee altitude
282.02 km
Semi-major axis
6,663.647 km
Eccentricity
0.00052
Inclination
97.1565°
RAAN
217.3058°
Arg. of periapsis
150.0935°
True anomaly
210.03415°
Mean anomaly
210.0642°
Eccentric anomaly
210.04917°
Mean motion
3.99002 °/min
Orbital period
90.23 mins
BSTAR
0.00055769
Loading maneuver chart data...
Computing Atmospheric mass density...
Loading historical data...
Loading historical data...
Loading historical data...
Loading historical data...
Loading historical data...
Loading historical data...
Loading historical data...

Documentation

Showing up to 5 results
|